RH
99 101 99 100 101 99 96 97 100 100 100 101 100 100 100 100 100 98 98 98 93 87 82 80 79 80 80 78 75 69 59 51 50 56 64 71 79 81 76 74 70 65 65 73 79 76 73 72 66 66 69 72 83 94 96 98 99 99 100 96 88 87 85 86 91 86 85 94 93 89 96 96 89 91
98 100 99 100 101 99 100 101 99 100 101 100 100 101 99 99 100 99 99 97 93 90 87 84 83 83 82 81 79 75 69 58 51 55 62 69 77 82 79 73 69 64 59 65 77 79 76 73 69 68 68 70 80 88 89 95 100 99 100 97 93 95 93 91 95 90 87 93 91 89 97 95 92 95
98 100 100 101 100 100 101 99 96 98 101 100 100 101 100 99 97 97 100 98 92 89 87 85 86 87 86 84 82 80 76 67 56 55 63 70 76 80 76 71 68 62 52 54 66 77 79 77 73 70 68 71 80 84 83 91 98 99 100 98 96 98 97 96 99 95 93 94 86 83 92 94 94 99
100 100 100 101 100 100 101 97 93 96 99 101 100 100 100 98 94 95 100 101 93 86 86 87 87 90 89 86 85 83 79 74 64 57 61 68 71 72 69 66 64 57 47 45 53 69 81 81 79 75 68 71 82 83 80 82 88 95 100 100 99 101 100 98 99 98 98 98 86 78 87 96 98 99
101 100 100 101 100 100 100 96 95 97 99 100 100 100 101 98 96 98 100 101 97 87 86 90 88 90 93 91 87 85 83 80 71 60 59 63 65 65 65 65 64 58 50 44 44 59 78 82 83 82 73 71 78 79 77 77 81 87 89 88 89 93 99 100 100 99 98 100 91 76 76 86 92 94
100 100 101 101 99 99 98 95 96 100 100 100 100 99 101 100 99 99 98 100 101 92 87 89 88 90 96 95 89 86 86 83 77 66 59 62 65 63 62 65 69 67 61 53 44 49 69 80 83 84 79 73 73 73 72 73 77 79 77 76 76 77 83 93 100 101 98 101 97 81 73 75 79 84
100 100 101 99 98 98 97 93 96 101 100 100 101 99 101 101 99 99 99 99 101 97 90 89 90 91 96 98 92 87 87 86 81 72 62 61 66 67 63 63 69 72 69 64 52 43 55 72 79 82 81 77 73 72 72 70 69 66 60 62 69 70 70 79 95 102 99 100 100 89 81 80 81 80
100 100 101 99 99 100 98 94 96 101 100 100 101 100 100 100 99 100 100 100 100 98 94 91 90 93 98 100 96 89 89 89 84 75 66 61 64 69 70 65 65 71 73 71 63 49 46 55 67 75 81 82 79 76 76 72 63 51 40 40 53 62 65 69 83 97 99 99 101 96 89 88 90 84
100 100 100 100 101 101 99 98 99 100 100 100 101 100 100 100 100 100 100 100 98 96 97 94 91 96 100 100 98 93 91 92 87 79 71 65 65 69 75 74 69 70 72 73 70 60 49 44 48 57 67 77 83 82 80 75 62 49 38 32 35 47 56 58 66 84 97 99 100 99 95 93 96 93
100 101 100 101 102 101 100 100 100 100 100 100 100 100 100 100 100 100 100 101 98 94 98 98 95 98 100 100 99 96 94 94 92 85 77 72 71 71 76 78 75 72 72 74 73 68 59 48 41 41 45 56 71 79 79 74 65 54 45 33 28 39 52 55 57 69 85 96 100 101 99 95 98 97
99 100 100 101 102 100 100 100 101 101 99 99 100 100 100 99 100 101 99 101 99 95 98 100 99 99 100 100 99 96 97 98 97 92 84 78 77 77 77 78 76 73 72 73 73 70 65 55 45 39 35 36 47 60 66 69 67 59 47 36 29 35 47 53 55 60 67 78 89 98 100 98 99 99
99 100 100 101 102 100 101 101 102 102 100 100 100 100 100 100 100 101 100 100 100 97 96 97 99 100 99 100 100 98 100 100 97 96 92 85 81 81 81 79 77 75 72 72 72 69 65 59 48 40 36 33 34 40 47 53 58 54 44 35 30 33 40 42 45 52 54 58 73 92 100 98 99 101
98 100 101 102 101 100 102 102 101 100 99 100 101 100 100 101 100 100 100 100 100 99 98 97 98 101 100 100 100 100 100 98 93 93 94 92 87 86 86 83 81 80 77 77 74 68 63 58 51 43 38 35 33 33 35 37 42 44 40 34 30 28 29 29 33 41 45 47 63 87 98 97 99 101
97 98 99 100 100 100 102 102 99 97 96 99 100 100 101 100 100 101 99 100 101 100 100 99 99 100 100 100 100 100 100 100 96 93 94 96 96 95 94 91 87 85 84 82 79 72 62 56 52 45 38 36 34 33 33 32 30 32 32 32 31 25 20 21 29 39 43 46 55 71 85 91 96 99
99 98 95 98 101 99 101 101 97 94 95 97 95 96 101 100 99 100 100 100 101 100 100 100 100 100 100 100 101 100 100 101 100 97 96 98 100 100 99 98 95 91 88 86 83 77 68 58 53 47 40 36 35 34 34 32 29 27 27 29 32 29 22 18 24 36 48 57 59 61 68 74 80 91
100 99 96 98 101 99 100 100 97 96 97 93 88 92 100 101 99 100 100 100 100 100 100 100 100 100 100 100 100 100 100 100 100 100 99 100 101 100 100 100 99 97 94 91 88 83 76 67 58 52 45 39 36 35 34 33 30 27 26 27 30 32 29 21 19 23 32 48 60 59 56 57 60 72
100 101 99 99 101 99 100 100 99 100 98 88 82 88 97 100 100 101 100 100 100 100 100 100 100 100 100 100 100 100 100 100 100 100 100 100 100 99 98 99 100 100 99 97 95 90 85 79 69 61 55 48 42 38 36 35 33 30 28 28 29 32 32 28 23 18 15 27 53 67 64 59 57 59
101 101 100 100 101 100 100 100 100 101 99 89 81 83 90 96 100 100 100 100 100 100 100 100 100 100 99 100 100 100 100 100 100 100 100 100 100 99 98 99 100 100 100 100 100 97 93 88 81 73 67 60 52 46 41 38 36 34 32 30 29 30 31 32 31 26 19 17 35 63 76 79 80 73
101 101 100 99 101 100 99 100 100 100 99 90 81 81 83 88 94 98 100 101 100 100 101 100 100 101 100 100 100 100 100 100 100 100 100 100 101 100 99 100 100 99 100 100 100 100 98 96 92 85 78 72 65 58 51 45 41 38 36 33 31 29 29 31 32 31 30 23 23 39 55 65 76 78
97 99 101 100 100 101 100 100 100 101 97 89 81 79 79 80 85 92 97 100 100 100 100 100 100 100 99 99 100 100 100 101 100 100 99 100 100 100 100 100 100 100 101 100 100 100 100 100 99 96 90 84 78 70 63 56 50 45 42 38 36 33 30 30 30 29 31 31 28 28 31 33 39 48
93 95 99 101 100 100 100 100 100 100 98 93 87 81 78 78 78 82 88 95 100 100 100 101 100 99 97 98 100 101 100 100 100 100 100 100 100 100 99 99 100 100 100 100 100 100 100 100 100 100 99 95 89 83 76 70 63 57 52 46 42 39 35 32 31 30 28 28 28 27 27 26 26 29
87 93 96 100 101 99 101 100 100 100 99 99 98 90 83 79 76 76 80 84 90 95 97 100 101 99 98 97 99 100 100 100 101 100 100 100 100 100 98 97 99 100 100 100 100 99 100 100 100 100 101 100 98 94 88 82 76 70 64 59 52 47 43 38 35 34 32 30 29 27 26 26 25 25
80 91 96 100 100 99 101 100 100 101 100 100 102 98 93 87 81 81 83 82 83 85 90 97 100 99 97 94 95 98 98 98 100 100 100 101 100 100 100 99 99 99 99 99 99 99 98 99 100 100 100 100 100 100 98 93 88 82 76 71 65 58 52 47 42 38 36 34 33 32 31 31 29 27
73 85 95 101 101 99 101 101 99 101 100 100 101 100 100 98 93 92 93 90 86 84 85 90 95 96 95 93 94 98 98 97 99 99 100 100 100 100 100 100 100 99 99 98 99 98 97 97 99 100 100 100 99 99 100 99 95 92 88 82 77 70 63 57 51 46 42 39 37 36 35 34 33 32
70 81 91 100 102 100 101 101 100 101 100 100 101 100 100 101 100 99 98 95 91 87 84 84 86 90 93 93 95 99 99 99 99 99 100 100 100 100 100 100 100 98 98 100 99 99 99 98 98 99 100 101 100 99 100 100 99 98 95 92 87 81 75 70 64 57 51 45 41 39 39 38 36 35
66 76 86 97 101 100 101 101 100 101 100 100 101 101 100 101 100 100 99 98 95 91 88 87 84 84 87 90 95 99 100 99 96 95 97 98 99 100 100 100 100 96 97 100 99 99 100 99 98 99 98 99 99 99 98 99 100 100 99 98 96 92 88 83 78 72 66 59 52 45 41 40 38 37
61 69 80 88 89 90 95 99 99 100 101 101 101 101 101 101 101 100 100 100 99 96 95 96 93 88 84 84 89 96 100 100 95 91 92 94 96 99 100 100 100 96 96 100 100 100 100 100 100 99 98 98 98 97 96 97 98 99 100 100 99 98 96 93 89 85 80 75 69 62 55 50 47 44
59 64 73 76 75 77 83 90 95 98 100 102 102 101 101 100 99 100 99 100 101 99 98 99 99 97 93 90 89 92 98 100 97 93 94 94 92 93 96 99 100 98 97 99 100 100 100 100 100 100 99 99 98 95 93 94 95 96 98 100 100 100 99 98 96 93 90 86 82 78 73 69 65 61
56 56 60 62 64 69 72 76 83 89 94 98 99 99 99 97 97 100 100 99 99 99 99 100 99 99 99 98 96 95 96 99 99 97 97 96 90 85 85 89 95 98 99 99 98 98 100 99 100 100 100 100 100 97 94 91 90 92 95 97 98 98 99 99 99 97 96 93 90 88 85 82 79 76
50 47 48 50 54 63 68 70 74 78 82 88 93 96 98 99 100 101 101 100 98 98 100 101 100 100 100 99 100 99 98 100 101 99 95 89 84 79 76 76 81 90 97 99 96 96 99 100 100 100 100 100 100 100 99 96 92 90 90 93 95 96 96 96 96 97 97 96 94 92 91 90 88 85
47 45 45 47 48 53 58 62 66 68 70 74 79 85 91 96 100 102 102 101 101 100 101 101 100 100 100 98 97 96 96 96 97 97 93 85 80 81 81 74 70 76 90 98 98 96 97 99 100 100 99 100 100 99 100 100 98 95 92 90 92 93 94 92 90 89 91 92 93 93 92 92 92 91
48 45 45 43 41 42 44 47 52 57 62 66 68 73 78 84 90 96 98 100 101 101 101 101 101 101 101 99 97 94 91 89 87 87 87 83 83 90 96 88 75 70 78 90 98 98 96 96 100 101 99 99 100 99 100 100 100 99 96 93 90 91 92 92 89 85 83 84 86 88 88 88 87 87
48 45 44 41 39 39 39 41 45 50 56 60 63 66 69 72 77 84 88 93 98 101 101 100 101 101 101 100 100 98 96 93 90 88 86 86 88 95 101 100 90 80 78 85 94 99 97 94 97 100 100 99 100 100 100 100 100 99 98 97 94 91 90 91 91 89 84 80 79 80 81 82 81 80
48 47 47 46 45 46 45 46 50 53 55 58 60 62 64 65 68 72 76 81 88 95 99 100 100 100 101 101 100 100 100 99 99 97 93 93 96 99 100 99 95 90 87 89 93 98 99 97 97 100 101 100 100 100 100 100 100 100 99 99 97 95 92 91 91 91 90 86 82 79 77 77 77 77
49 50 51 50 50 51 52 54 58 60 60 60 60 61 62 64 65 67 70 72 74 81 90 97 101 101 100 101 101 100 100 100 100 100 99 98 99 101 100 100 98 96 96 96 95 98 101 100 99 100 100 100 100 100 100 100 100 100 100 100 99 99 98 95 92 91 92 91 89 87 84 81 80 78
50 52 53 54 54 54 54 58 62 64 64 65 64 63 62 63 65 67 70 69 67 68 74 83 93 99 101 101 101 100 101 101 99 100 100 100 100 100 100 100 100 99 100 100 98 99 101 100 100 100 100 100 100 100 99 99 99 98 98 99 99 99 99 98 96 93 92 92 91 92 91 89 88 86
50 54 56 58 60 59 59 60 62 64 67 67 66 66 67 67 66 66 67 65 62 62 64 66 75 86 95 100 102 101 100 101 101 100 100 100 100 101 100 100 101 100 98 98 98 99 100 100 100 100 99 100 101 99 98 97 97 96 97 98 99 100 99 99 99 95 93 92 91 90 91 90 90 91
56 58 60 63 64 63 63 62 61 62 65 65 63 62 63 63 62 60 61 60 58 59 59 58 60 66 76 86 96 100 100 100 99 100 101 100 100 100 99 99 100 99 98 98 98 99 100 100 100 100 100 101 100 99 100 99 96 92 92 93 95 98 99 98 96 94 93 90 88 87 88 88 87 88
64 67 68 71 73 71 69 68 66 65 65 65 65 62 58 57 56 54 56 58 58 58 58 57 57 56 58 64 75 87 96 100 100 100 100 100 100 99 98 97 98 97 99 100 100 100 100 100 99 99 99 98 96 93 92 92 89 87 89 90 90 93 95 96 95 94 93 91 87 85 85 84 84 84
68 72 73 75 78 78 77 75 72 71 68 68 68 68 64 59 56 55 57 58 57 56 56 56 56 54 52 52 56 65 79 92 99 102 101 100 100 101 99 99 99 97 97 99 100 100 100 99 99 99 99 97 95 92 89 88 86 85 87 90 91 92 94 96 96 95 94 93 92 91 90 87 83 81
69 73 76 77 79 81 81 80 79 77 74 70 68 69 68 64 61 61 63 63 60 58 55 54 54 54 52 51 50 51 56 68 82 96 101 101 100 101 101 101 100 97 96 97 98 99 100 100 100 100 99 99 99 99 98 97 92 86 84 86 89 90 91 91 92 91 89 89 91 91 90 87 85 82
74 76 78 80 82 83 84 84 83 82 80 76 71 68 66 65 63 61 61 60 60 59 56 53 52 53 52 51 50 49 48 49 57 73 89 99 102 101 100 100 99 97 95 95 94 95 96 97 98 98 99 100 100 100 100 100 97 91 84 81 81 83 83 83 83 83 81 81 83 83 84 87 90 89
77 79 80 82 84 86 87 87 87 86 85 83 79 74 69 66 63 59 57 57 59 60 59 57 55 53 52 51 50 50 49 47 45 49 63 80 94 101 101 101 101 100 98 96 93 91 91 90 91 91 91 93 97 99 100 100 100 97 89 81 77 77 77 77 76 76 76 75 73 72 75 81 84 81
79 82 84 85 86 87 90 91 91 90 89 87 85 82 78 73 70 67 65 65 66 67 68 65 61 58 55 52 49 48 48 48 46 43 44 53 70 87 98 100 99 100 101 99 94 90 87 87 88 87 84 85 92 99 100 98 99 101 98 92 86 82 80 80 80 80 78 76 73 70 71 71 71 70
82 84 87 88 88 89 91 93 94 94 92 90 88 87 84 81 78 75 74 73 73 74 75 73 69 65 61 57 53 51 49 48 47 44 41 40 46 60 77 89 93 95 98 100 96 90 84 82 84 85 82 80 85 94 100 100 99 99 99 99 98 94 91 92 92 90 85 78 71 68 69 67 65 67
Wind_Speed
33 30 26 26 31 34 34 31 29 28 28 28 28 29 31 30 28 26 26 27 27 27 26 25 24 24 24 25 27 28 26 23 24 27 28 28 32 35 35 32 29 27 28 31 32 32 37 41 47 52 50 47 43 37 41 43 35 35 44 45 41 42 41 39 38 34 35 36 34 35 39 39 38 40
34 30 27 29 33 33 32 31 30 28 27 27 26 26 29 30 30 29 27 28 26 25 25 24 21 22 23 23 25 26 27 24 23 25 28 28 30 33 34 32 30 27 26 29 31 31 36 42 47 51 48 47 47 41 38 42 35 30 40 47 44 42 41 41 39 36 37 36 33 36 39 39 39 41
34 29 28 31 32 31 32 32 29 27 26 26 26 25 27 30 31 31 29 29 27 25 25 25 22 20 21 23 24 24 25 25 24 24 25 25 25 27 30 30 29 26 25 28 30 30 33 39 44 49 48 48 50 45 38 39 35 30 36 42 46 49 46 43 41 38 38 36 32 34 37 38 40 42
33 29 30 31 30 30 32 32 29 27 26 27 27 24 24 27 30 29 27 26 27 27 26 26 24 21 20 22 23 24 24 24 25 25 23 22 21 23 25 27 26 24 24 26 29 29 30 36 40 43 47 52 54 49 41 38 34 30 33 33 38 48 48 44 43 41 40 36 30 32 36 38 39 42
30 28 29 29 29 29 30 30 28 26 26 29 29 23 19 22 26 25 24 23 25 26 25 26 26 23 22 22 22 24 24 24 26 26 25 23 22 22 23 24 25 24 22 24 29 32 31 34 38 42 48 55 58 54 49 43 34 29 32 30 29 36 40 41 43 42 42 38 31 30 34 36 38 40
28 26 27 28 28 28 26 26 28 27 26 29 29 22 16 18 22 23 22 21 22 24 24 24 25 24 23 22 21 22 24 25 25 27 29 27 25 24 24 24 24 23 22 21 26 32 32 32 36 41 47 51 52 51 50 47 40 33 34 35 32 32 33 35 39 41 43 40 34 31 32 33 35 37
26 26 27 27 27 26 25 27 31 29 26 28 28 22 13 12 18 21 21 20 19 21 22 22 23 23 23 23 21 21 23 24 25 26 30 32 28 26 25 24 23 23 23 21 22 27 31 32 32 36 42 46 46 45 45 46 43 37 35 37 39 40 39 36 36 38 43 42 37 34 32 31 32 32
27 26 28 27 25 25 27 30 32 29 26 27 28 23 15 9 11 17 19 18 18 19 21 22 22 22 23 23 20 19 22 24 24 24 27 32 32 28 26 25 24 22 24 24 22 23 27 31 32 32 35 40 45 46 45 45 41 34 33 36 39 43 44 40 35 35 40 43 41 38 36 34 32 31
27 26 27 27 26 27 29 31 31 29 27 28 29 25 20 15 8 12 14 15 16 17 20 21 21 20 22 23 20 19 21 22 23 22 24 29 32 31 28 26 25 23 24 25 25 23 23 27 32 33 32 31 36 41 44 46 42 34 32 35 37 39 41 40 38 36 38 42 43 42 39 37 35 32
25 23 26 26 25 27 29 30 30 30 29 29 31 28 23 19 11 7 11 13 15 17 18 19 20 21 21 21 19 18 20 21 22 22 22 25 30 32 30 28 27 26 25 26 26 26 25 24 27 32 34 33 31 32 35 40 40 35 33 35 36 38 39 39 39 38 38 39 42 44 43 40 38 35
25 21 25 25 24 25 27 28 29 30 30 31 32 29 25 22 16 6 8 12 14 16 16 16 17 20 21 21 19 18 18 18 20 21 23 25 29 31 31 29 27 26 26 26 26 26 26 26 25 26 31 34 34 32 30 31 33 33 34 37 37 36 37 39 41 42 42 40 39 42 44 42 41 38
26 20 23 22 22 25 26 24 25 28 29 31 33 29 24 22 18 12 6 10 14 14 14 14 14 16 19 20 20 19 19 18 18 20 24 26 28 30 30 29 27 26 25 24 25 26 26 27 26 25 27 30 33 34 33 32 32 33 36 39 39 37 37 40 42 43 43 41 41 44 46 43 42 41
28 22 21 21 24 26 25 22 23 25 26 29 32 28 23 21 19 18 12 4 11 13 12 11 11 12 15 19 20 20 22 22 19 19 23 25 26 28 28 27 27 26 25 24 23 24 25 26 27 27 28 29 31 34 35 35 35 36 37 38 40 39 38 41 43 41 41 40 40 42 44 42 41 41
30 27 23 24 29 28 25 24 25 25 26 28 27 22 19 20 19 20 19 11 2 9 12 10 10 9 11 15 19 21 22 22 20 20 23 24 23 24 25 25 27 27 26 25 23 22 22 24 26 27 28 29 30 32 34 34 36 37 39 39 40 40 40 42 43 41 39 38 38 38 38 38 40 42
30 30 26 29 33 32 29 29 30 29 29 29 24 18 14 15 17 18 19 16 10 2 4 6 7 6 6 9 14 17 19 21 21 22 24 24 22 22 24 24 25 27 27 25 24 22 21 22 24 25 27 28 29 31 31 31 33 35 38 40 40 40 40 41 43 42 41 40 39 38 36 36 38 42
29 30 29 33 37 35 32 34 36 35 33 29 23 17 13 12 13 14 14 16 16 11 7 5 3 1 1 2 6 9 12 14 16 18 21 23 22 21 22 22 23 24 25 25 25 24 22 21 22 22 23 25 27 28 29 30 31 33 35 38 39 40 39 39 41 42 43 43 43 41 40 39 39 40
29 29 31 35 39 38 36 37 39 38 35 30 23 17 14 11 10 11 13 16 16 13 10 10 9 6 4 4 4 4 6 8 9 11 14 17 18 19 20 21 20 21 23 24 24 25 25 24 22 21 21 21 22 24 26 28 30 31 33 35 37 38 38 38 39 40 42 43 44 43 43 43 42 40
30 30 32 35 38 39 39 37 37 36 35 31 25 20 16 12 10 10 12 15 16 15 12 11 10 8 5 4 3 3 4 6 7 8 9 10 12 13 15 16 17 19 21 22 22 23 25 25 24 24 22 21 21 21 22 25 27 29 30 31 33 35 36 37 38 39 40 41 43 45 46 45 44 42
32 30 32 34 36 37 36 35 33 34 34 30 26 22 18 13 11 11 12 13 14 14 12 11 11 10 8 5 3 2 3 5 6 7 9 8 7 8 11 13 15 15 17 20 21 21 23 24 25 24 24 23 22 21 21 22 24 26 27 29 30 31 32 34 36 37 39 40 42 44 47 47 47 46
33 31 32 36 37 35 34 33 32 32 32 28 26 24 20 15 10 8 9 10 9 9 9 10 10 8 6 5 5 3 1 3 4 5 7 8 8 8 9 11 12 12 12 15 19 20 21 23 24 23 23 24 24 24 24 23 23 23 25 26 28 30 30 31 33 34 36 38 40 40 42 43 44 45
34 31 32 36 38 35 34 33 32 31 30 28 26 25 22 18 12 7 5 4 4 4 5 7 7 5 3 4 6 6 3 1 1 3 5 6 6 8 8 8 8 9 9 11 13 15 17 20 23 24 24 24 24 25 26 25 24 23 23 24 26 28 30 30 31 32 33 35 36 37 37 37 37 38
35 33 33 35 36 35 33 32 32 31 30 28 27 26 24 20 15 11 8 4 1 1 0 3 4 4 3 3 5 7 7 5 3 2 3 3 4 6 6 7 7 7 8 9 11 13 14 15 18 22 24 24 25 26 26 26 26 26 25 25 25 26 28 29 30 32 33 34 34 34 34 34 34 35
36 35 34 35 36 35 33 32 32 31 29 27 26 26 25 23 20 19 16 11 6 2 0 1 2 3 4 2 2 4 6 7 6 6 4 2 1 3 4 5 6 6 7 8 10 12 13 14 15 18 21 23 26 28 28 27 28 27 26 26 27 27 27 28 29 30 31 33 34 35 35 34 34 35
37 36 36 36 36 35 33 31 31 31 28 26 25 25 25 24 23 22 20 16 12 7 3 1 0 1 1 1 2 1 1 3 5 6 6 4 2 1 3 4 5 6 5 6 7 9 11 14 15 16 18 19 21 27 31 31 31 30 29 28 28 28 27 27 28 29 30 31 31 33 34 35 36 37
37 38 37 37 36 35 32 28 28 30 27 24 25 24 22 20 19 19 18 16 13 9 4 1 2 3 3 3 4 3 1 3 4 5 5 5 4 0 2 4 6 6 5 5 5 6 8 12 14 16 18 17 16 20 27 31 33 33 33 33 31 29 28 28 28 28 28 29 30 30 31 32 34 36
36 37 37 35 34 33 31 26 26 27 26 25 25 22 17 15 15 15 16 15 13 9 5 2 1 3 4 4 4 4 3 4 4 4 4 4 4 2 1 4 6 7 7 6 6 6 7 9 12 15 18 18 16 16 19 25 29 32 34 35 35 34 33 31 30 29 28 28 29 29 29 30 31 32
35 35 35 34 34 34 33 30 27 27 28 28 26 21 17 16 15 13 12 11 11 8 5 2 1 1 3 4 4 3 3 4 5 5 4 4 4 3 2 4 7 8 9 9 8 8 8 8 10 13 16 18 18 18 17 19 23 27 31 33 34 36 36 36 35 34 33 31 30 29 29 29 29 29
34 34 34 34 34 34 34 33 31 30 31 31 28 24 21 19 17 15 14 14 13 9 5 3 3 3 1 3 4 4 3 3 5 5 5 4 4 5 4 4 6 9 11 11 11 11 10 10 9 11 13 16 18 19 18 18 18 21 25 28 31 33 35 37 37 36 36 35 35 34 33 33 33 32
32 33 33 32 33 34 34 35 35 35 35 34 32 29 27 25 25 25 23 20 18 15 12 8 6 5 5 4 5 6 6 5 5 7 6 5 4 5 5 5 5 7 10 12 13 13 13 12 11 11 13 15 17 18 18 17 17 17 19 23 26 29 31 33 35 36 36 36 36 38 38 38 36 35
30 31 32 32 33 35 37 37 38 38 37 37 36 36 35 35 35 34 31 27 24 22 18 15 11 8 7 7 7 8 8 8 8 9 9 7 5 4 5 5 5 6 8 11 13 15 15 14 13 13 14 15 17 18 18 17 17 16 16 18 21 23 26 28 30 32 35 36 36 37 38 38 37 37
30 31 33 34 35 36 37 37 37 38 38 38 39 40 41 40 40 39 36 32 28 25 23 20 15 12 9 7 7 9 10 10 10 10 11 10 6 4 4 5 6 6 7 9 12 15 17 17 16 15 16 16 17 17 17 17 17 17 16 16 17 18 21 24 26 27 28 31 34 34 35 36 36 37
30 31 32 33 34 35 35 36 37 38 39 40 41 41 41 41 40 39 37 34 31 28 26 22 18 14 11 9 7 6 8 10 10 11 11 11 8 5 4 5 6 7 7 8 10 13 17 19 19 17 17 17 16 17 17 17 18 17 16 16 16 16 17 19 23 24 24 26 29 31 32 32 33 34
29 30 32 34 35 36 37 38 39 39 39 40 40 41 41 41 41 41 40 39 37 34 30 26 22 19 16 12 9 6 4 5 7 8 9 10 9 7 5 6 7 7 7 7 7 10 14 19 21 20 18 17 17 17 18 18 19 18 17 16 16 17 17 17 19 22 24 26 27 28 29 30 30 31
29 31 34 36 37 38 39 39 40 40 40 39 40 40 41 41 41 42 42 41 39 37 34 31 27 25 22 18 14 10 7 6 5 5 6 6 8 7 6 7 8 7 7 7 6 6 8 14 20 22 22 20 19 19 20 20 20 19 18 17 16 16 16 16 17 19 22 25 26 27 28 29 29 29
31 33 35 36 37 37 38 39 39 39 39 39 39 39 39 40 41 42 42 41 39 38 37 35 32 29 26 23 19 16 12 9 6 3 3 5 7 6 4 4 5 6 6 7 7 6 6 9 15 20 23 23 22 21 21 21 20 19 19 18 17 16 15 16 16 17 19 21 24 26 27 28 28 28
32 34 35 35 36 36 37 37 38 38 38 38 38 38 38 39 40 41 41 40 39 38 38 37 35 33 29 26 23 20 17 13 9 5 1 3 6 6 3 2 2 4 6 7 7 8 8 8 10 15 21 24 23 23 22 21 20 20 19 19 19 18 17 16 16 17 18 19 20 23 26 27 28 28
33 34 34 34 35 35 35 35 35 36 36 36 36 36 37 37 38 38 38 37 37 37 38 37 36 34 33 30 28 25 22 18 14 11 7 2 3 5 5 3 1 3 7 8 7 8 8 8 8 11 15 19 22 23 22 20 20 20 20 20 19 19 19 18 18 19 20 20 20 20 21 23 24 25
34 34 33 33 33 33 33 33 34 34 34 34 34 34 34 34 34 35 35 35 36 36 37 36 36 35 34 33 31 30 27 24 20 17 14 8 2 3 6 5 3 2 5 7 8 8 8 8 10 10 12 14 18 20 19 19 20 21 21 21 20 19 19 21 22 22 22 21 21 21 20 20 20 20
33 33 33 33 32 32 32 32 32 32 32 32 33 33 32 32 33 33 33 34 34 35 35 36 36 35 35 34 33 32 31 29 26 23 20 16 10 4 3 6 7 6 4 4 6 7 7 8 10 11 12 13 14 14 14 16 18 19 19 21 23 23 22 23 24 24 23 23 23 22 22 21 21 20
32 32 31 31 31 31 31 30 30 30 30 30 31 31 31 31 31 32 33 33 33 33 34 34 34 34 34 34 33 32 32 31 30 28 25 21 18 13 7 4 6 8 6 4 4 5 6 7 8 10 12 16 15 12 11 12 14 16 17 19 22 24 25 26 25 25 25 25 24 24 24 24 24 24
32 31 31 30 29 29 29 29 29 29 29 29 29 28 29 29 29 30 31 31 32 32 32 32 33 33 33 33 33 33 32 31 31 29 27 25 23 19 14 9 6 6 7 7 6 4 5 6 7 8 11 15 17 16 15 16 16 16 17 17 18 19 22 24 25 26 26 26 26 26 26 26 25 25
31 31 30 29 28 28 28 28 28 28 28 28 28 28 27 27 27 28 28 29 30 31 31 31 31 31 32 32 32 32 32 31 30 29 28 27 25 22 19 15 11 8 7 8 9 8 6 6 7 7 8 10 12 15 17 20 19 18 17 17 17 17 18 20 21 23 24 25 26 27 27 26 26 26
30 30 29 29 28 27 27 27 27 27 27 27 27 27 27 26 26 27 27 28 29 30 30 30 30 30 30 30 30 30 31 31 30 28 27 27 27 25 24 21 18 13 10 9 9 9 9 8 9 9 10 9 9 10 13 16 19 20 20 20 18 18 18 18 18 19 20 22 24 25 25 25 26 27
29 29 28 28 27 27 26 26 26 26 26 26 26 26 26 26 26 26 27 28 28 29 29 30 29 29 29 29 29 29 29 29 29 28 27 26 26 25 25 23 20 17 14 12 10 9 9 9 8 10 12 12 11 10 10 11 14 18 20 21 20 20 19 18 19 19 20 22 24 24 24 25 26 26
28 28 27 27 26 26 26 26 25 25 25 25 25 25 25 25 25 25 26 27 27 28 28 29 29 29 29 29 28 28 28 28 27 27 26 26 25 25 24 23 21 19 17 15 13 11 10 9 9 10 12 14 14 14 13 12 12 14 16 18 20 20 20 20 21 22 23 25 25 25 25 24 25 25
Wind_Direction
328 327 324 311 304 309 313 314 312 307 302 296 291 288 283 276 274 280 284 279 274 272 271 271 265 256 252 252 248 247 251 250 243 237 237 238 236 230 228 230 231 230 234 236 230 228 231 230 229 227 227 230 228 217 213 211 202 198 203 204 201 201 200 200 205 202 197 202 202 191 191 195 194 190
330 326 319 308 306 310 311 313 313 311 308 305 299 290 281 274 268 269 275 277 274 269 268 269 267 261 254 250 248 246 246 247 244 238 235 239 239 232 227 227 228 226 228 234 232 229 228 227 228 226 224 228 223 213 215 217 207 195 198 202 204 205 202 201 204 202 199 203 201 193 192 194 193 190
331 323 313 308 309 311 311 313 316 316 318 315 307 296 282 272 266 265 269 275 273 266 265 265 262 259 255 249 246 247 246 243 243 238 234 236 235 228 223 221 222 223 224 228 230 231 229 225 226 225 223 224 219 212 216 223 218 202 195 197 201 204 204 202 202 201 202 204 200 196 195 193 193 191
328 316 310 309 312 314 315 316 318 320 324 321 313 305 288 271 263 261 265 272 272 265 263 263 260 255 252 248 243 244 245 242 241 236 230 230 227 221 219 215 214 217 220 222 223 227 227 223 223 222 219 218 218 217 218 225 226 212 202 201 196 196 200 201 200 198 201 205 201 199 199 196 195 193
321 313 312 315 316 317 318 320 323 324 325 322 318 314 294 269 260 258 261 271 274 268 263 261 259 255 252 251 244 240 242 241 239 233 225 222 222 221 219 215 212 211 214 218 217 219 223 221 218 217 215 217 221 224 223 226 229 214 203 205 200 196 200 203 203 199 198 204 204 200 201 199 198 195
320 317 318 319 319 320 323 328 333 333 327 323 325 325 303 269 259 257 260 270 277 272 267 263 260 256 251 253 250 239 238 239 238 233 225 220 220 220 219 220 218 213 213 218 217 217 220 220 216 213 215 219 223 225 225 226 227 217 206 208 210 210 212 212 210 204 200 203 204 199 197 195 197 198
325 323 323 321 322 327 334 339 342 340 329 328 337 340 324 279 262 259 261 267 274 276 273 266 263 258 249 250 251 239 234 237 238 234 226 222 222 221 219 220 221 217 213 216 219 218 217 217 215 213 216 220 223 225 225 225 224 218 213 215 214 215 221 221 216 207 202 203 204 202 195 190 191 196
326 325 325 324 331 338 342 343 343 337 331 338 350 353 348 326 276 264 266 267 270 278 276 265 260 259 249 245 246 239 232 232 234 234 227 222 223 225 222 219 220 218 214 214 218 220 217 214 213 213 216 219 222 224 225 223 220 215 215 217 215 216 220 221 218 213 206 204 204 204 199 193 191 190
326 325 328 330 338 342 341 340 338 335 338 348 355 355 354 351 313 260 260 266 266 273 275 264 257 255 247 241 241 238 232 230 229 229 225 222 222 225 226 223 221 219 216 215 217 220 220 215 212 213 216 217 218 219 220 218 215 212 216 218 215 215 217 217 220 218 210 207 206 204 203 198 195 191
333 331 333 333 338 342 340 337 337 340 347 353 353 352 354 358 348 269 246 251 255 262 269 265 255 249 241 233 234 235 231 230 228 224 222 219 220 223 225 224 223 222 220 217 217 218 219 216 212 211 212 213 214 214 212 211 209 208 214 218 216 215 214 213 217 217 214 212 209 207 206 202 199 196
342 336 335 335 340 345 341 337 340 346 350 351 349 347 350 0 6 338 253 242 244 251 261 263 253 246 240 230 229 233 233 230 228 226 223 217 216 219 221 222 222 222 221 220 219 218 218 218 216 212 209 209 211 213 212 209 207 208 213 215 214 215 214 211 213 216 218 221 220 216 212 207 202 200
348 339 336 341 349 349 344 343 347 349 351 350 345 343 351 5 13 9 320 246 239 243 253 262 254 243 239 232 228 233 235 232 225 223 223 219 215 215 216 218 219 219 218 217 218 219 217 216 217 213 208 205 205 208 211 211 210 211 213 213 211 212 212 209 209 215 220 225 227 222 214 210 207 204
353 351 347 356 2 356 352 355 352 350 353 351 342 342 356 9 13 13 6 290 242 239 242 256 256 241 234 230 225 224 229 232 226 216 215 215 212 211 212 212 213 214 215 215 216 218 216 216 216 214 209 205 202 202 205 207 208 209 211 213 211 209 208 206 206 212 218 221 225 221 213 211 210 208
355 359 1 7 7 3 2 2 357 354 354 350 343 342 358 9 9 8 10 15 314 237 234 241 247 239 231 227 221 215 214 217 212 201 202 204 200 200 204 207 210 211 210 209 211 212 212 213 214 215 212 208 205 203 203 205 206 206 206 209 210 208 207 205 205 208 212 216 221 223 220 218 215 211
352 357 3 9 9 6 6 5 3 0 354 347 343 345 3 20 20 11 9 23 43 87 215 226 233 233 229 225 221 214 208 205 200 195 196 199 196 194 195 198 204 207 206 205 204 204 205 206 209 213 213 211 209 207 206 206 206 206 207 208 209 209 207 206 205 205 207 210 214 218 223 228 225 217
355 358 4 11 11 7 7 7 4 358 350 345 345 346 2 27 35 33 29 33 45 58 76 86 82 68 90 182 200 206 209 208 205 202 202 205 209 209 204 199 197 199 201 202 202 202 201 201 203 207 209 210 211 210 209 208 206 207 208 208 209 210 208 205 204 204 205 207 209 211 215 224 230 226
359 4 6 9 10 7 7 6 1 353 346 344 348 348 354 13 30 43 49 50 55 64 75 73 61 53 59 81 113 154 183 193 201 203 201 204 209 213 216 213 207 199 195 195 198 203 204 203 201 201 203 207 208 208 208 208 207 207 208 208 209 210 208 205 203 203 204 206 207 208 210 212 218 224
3 10 9 6 6 6 5 1 356 350 344 343 348 349 351 4 16 26 43 59 70 77 81 73 61 57 58 54 66 100 133 160 181 190 189 189 191 196 204 209 211 209 203 197 196 200 202 203 203 202 201 203 204 204 204 205 206 207 207 207 208 209 209 207 204 203 203 205 206 206 208 209 209 213
9 15 13 8 6 4 1 357 355 351 345 343 348 351 352 358 4 14 27 42 56 66 77 78 68 64 58 41 33 64 105 128 154 176 182 179 174 175 181 188 195 201 201 200 203 204 203 201 201 202 202 202 202 202 201 202 203 205 205 205 205 206 208 207 205 203 202 205 207 207 208 211 213 215
13 18 17 13 9 4 358 357 358 354 347 347 352 355 356 357 356 6 20 25 31 44 61 68 62 54 42 29 29 31 70 115 124 151 171 179 178 172 169 176 185 188 188 193 201 206 208 206 202 200 201 203 203 203 202 202 201 203 205 204 204 204 206 206 204 203 203 204 206 207 208 210 213 215
13 18 20 15 8 2 359 359 2 359 353 353 358 358 357 359 356 350 2 25 27 19 42 62 61 51 34 27 28 29 33 67 122 140 150 163 174 175 172 172 177 185 190 193 196 200 206 210 208 206 205 204 204 204 204 204 203 204 205 205 205 205 205 206 205 203 204 205 206 207 208 208 209 211
14 17 21 18 8 2 1 1 5 6 0 358 3 2 359 0 1 357 350 356 24 335 90 89 85 96 95 50 23 27 39 50 59 94 120 137 155 167 178 183 186 194 198 196 198 200 202 204 207 208 209 209 208 206 205 205 205 205 205 206 207 206 205 205 206 205 205 206 207 208 209 210 210 210
18 19 22 20 9 3 5 5 8 12 7 4 8 7 3 2 4 4 358 349 348 357 129 135 105 102 97 71 360 17 40 57 70 76 70 56 137 164 177 186 195 208 208 200 203 208 207 204 200 201 204 208 211 210 208 207 206 205 206 207 207 208 207 205 205 205 205 206 207 208 209 210 211 211
19 21 24 21 9 4 9 10 11 15 13 12 14 12 9 6 1 357 353 346 342 350 4 36 104 85 90 246 265 307 51 92 102 104 96 77 61 240 227 214 212 216 211 203 205 210 214 212 206 201 201 203 208 211 211 211 210 208 208 208 208 208 208 207 206 205 205 205 205 206 207 209 210 211
21 23 25 22 11 7 12 15 17 19 18 19 21 19 14 8 356 347 347 344 338 335 337 318 201 197 195 211 223 223 180 124 122 128 122 108 99 106 260 253 241 232 226 225 216 208 214 216 211 209 208 205 206 209 210 211 213 213 213 213 212 211 210 210 209 206 205 204 204 204 205 206 208 210
25 26 26 25 19 18 22 24 26 27 27 28 29 25 18 10 360 351 347 343 335 328 324 320 221 188 182 193 205 196 167 134 128 131 126 119 120 127 219 252 251 238 230 236 236 224 221 219 214 213 214 212 209 208 208 209 212 214 216 216 217 216 216 216 215 212 210 207 205 204 204 204 206 208
27 30 30 30 30 30 32 33 36 38 38 37 34 31 28 25 19 11 2 356 352 344 336 338 335 211 203 216 223 201 162 149 151 147 136 139 153 156 173 230 245 238 228 229 232 231 232 229 221 218 218 218 216 211 208 209 210 213 215 217 218 219 219 219 220 219 218 216 213 210 208 207 208 208
29 32 33 33 35 35 36 38 41 45 46 44 41 39 38 39 39 38 34 30 25 17 6 5 8 360 308 255 253 247 218 185 179 174 163 165 183 188 183 207 239 243 236 231 226 225 230 232 229 225 221 221 223 220 215 212 212 212 214 215 217 218 219 219 220 220 220 220 220 219 218 217 216 215
30 34 36 36 38 39 39 40 42 45 47 47 47 46 46 47 47 45 42 40 38 35 32 25 8 347 331 313 293 275 260 240 220 209 201 194 200 208 205 204 225 245 249 242 231 224 225 229 229 228 224 221 224 227 226 223 219 215 214 215 217 218 219 220 221 221 220 220 220 221 222 223 223 224
30 34 36 37 39 41 41 41 41 43 45 47 48 48 48 48 47 44 41 40 39 38 36 31 20 3 340 318 300 286 274 264 250 237 229 225 224 231 230 219 217 233 248 251 242 230 226 228 230 230 227 222 221 224 227 230 229 225 221 219 218 218 218 219 220 221 221 220 221 221 222 223 224 226
28 32 35 37 39 40 41 43 43 43 43 45 46 46 46 47 47 45 42 42 41 40 39 36 29 18 360 332 302 282 274 273 268 259 254 252 247 249 254 245 232 227 236 248 248 238 230 229 232 232 229 224 219 216 218 226 232 231 228 224 220 218 217 217 217 218 219 220 220 221 222 222 223 225
27 30 33 35 37 39 39 41 42 43 43 43 44 44 45 46 47 48 47 47 46 43 41 40 36 30 20 3 336 297 277 276 275 270 267 262 255 258 273 262 249 242 237 241 248 244 235 230 229 228 227 224 220 214 212 217 224 227 228 226 223 221 218 215 215 215 214 215 217 218 219 220 222 224
26 29 31 32 34 35 35 36 37 39 41 42 43 43 44 44 45 46 46 45 45 43 42 41 39 36 34 26 12 354 323 303 296 289 279 261 246 249 268 266 255 251 246 241 245 248 240 232 227 224 223 224 223 220 217 217 219 221 222 223 223 222 219 214 212 212 211 212 213 214 216 219 221 223
26 29 31 32 32 33 33 33 34 34 35 38 40 41 42 42 42 43 42 42 43 43 43 43 41 39 38 36 31 23 14 4 346 317 293 261 239 243 264 266 255 252 256 252 245 245 245 236 228 224 224 226 226 224 223 222 218 215 216 217 219 219 217 214 211 209 210 213 214 214 214 216 218 221
27 28 30 30 30 31 31 32 32 32 33 34 36 39 40 41 41 41 40 40 41 42 43 44 43 42 41 39 38 36 32 28 18 338 287 248 232 234 264 277 257 241 246 252 251 253 255 240 227 222 222 225 227 226 225 222 217 212 212 215 217 216 214 214 212 209 208 211 213 216 217 217 217 218
27 27 27 27 27 28 29 29 30 30 31 32 33 35 37 39 39 39 38 37 39 41 42 42 43 44 44 44 43 41 39 36 34 28 14 231 228 229 243 274 258 218 218 228 245 260 256 240 226 221 218 217 219 221 222 220 217 215 215 216 217 216 214 212 212 212 211 211 211 214 217 219 220 220
26 25 25 25 25 25 26 27 27 28 29 30 31 33 34 36 38 38 38 37 38 39 40 41 42 43 44 45 46 45 44 43 41 39 41 52 222 235 249 271 299 219 223 225 236 253 255 246 237 229 219 213 212 216 220 222 221 220 220 220 221 220 218 214 212 212 214 215 216 217 218 220 221 221
23 23 23 23 23 23 23 24 25 25 26 27 28 30 32 34 36 38 38 37 37 37 38 39 40 41 42 43 44 44 44 44 44 42 41 44 59 249 271 293 313 265 240 237 234 236 243 251 249 240 231 225 221 220 223 226 226 225 223 222 223 223 222 220 219 218 217 219 222 225 226 227 226 224
20 20 20 20 20 20 21 21 22 22 23 24 25 26 28 30 32 34 36 36 35 35 36 36 37 37 38 40 41 41 42 42 43 42 40 40 42 32 299 289 292 285 265 235 221 217 222 241 249 246 244 245 242 239 239 240 239 235 231 229 228 227 225 225 224 223 223 224 226 229 231 233 233 230
18 17 16 17 17 18 18 19 20 20 20 22 22 23 24 26 29 31 32 32 33 33 33 34 34 35 35 36 38 39 40 41 41 41 41 41 38 34 23 337 303 293 280 254 215 185 184 207 227 233 238 242 246 250 255 253 247 242 235 232 231 231 231 231 230 229 228 228 229 231 233 236 237 236
14 13 13 13 14 15 15 16 17 17 18 18 20 21 22 23 25 28 30 30 30 31 31 31 31 32 32 33 34 35 36 37 38 38 39 40 38 33 28 20 350 312 290 276 262 221 184 193 211 221 229 234 235 237 240 243 244 244 239 232 230 231 233 234 235 236 237 237 237 238 238 239 241 241
11 10 10 10 10 12 13 13 14 14 15 15 16 17 19 20 22 24 27 28 28 28 28 29 29 29 29 30 31 31 31 32 33 34 35 36 35 34 32 28 17 356 327 301 285 270 249 231 228 229 229 227 226 230 237 242 248 252 250 241 232 228 229 232 234 236 238 240 241 241 240 239 239 239
9 8 7 7 7 8 9 10 11 11 12 12 13 13 15 16 17 18 21 24 25 25 24 25 25 25 26 27 28 28 28 28 28 29 32 32 31 30 30 29 24 12 352 327 307 293 278 261 249 247 245 237 229 235 244 248 249 252 254 252 245 238 234 232 231 232 235 237 238 240 240 240 239 239
7 7 6 5 5 5 6 7 8 8 9 10 10 11 11 12 14 15 17 19 21 21 21 20 21 21 22 22 23 24 25 25 23 24 26 28 29 28 26 25 24 19 5 344 323 306 290 277 263 253 249 245 242 244 251 252 251 252 255 256 255 250 244 237 234 234 235 233 232 233 236 239 240 243
6 6 5 3 3 3 4 4 5 6 7 8 9 9 9 10 11 13 14 15 16 18 18 17 16 17 18 18 18 18 20 21 20 19 21 23 24 24 23 21 21 21 13 358 339 318 299 286 274 260 251 246 242 241 244 246 247 248 249 250 252 253 249 244 242 242 242 239 233 229 229 232 236 238